Weather History for KORD - May, 2011

Change the Weather History Date:

Tuesday, May 24, 2011

  Actual Average Record
Temperature  
Mean Temperature 57 °F 62 °F  
Max Temperature 66 °F 73 °F 93 °F (1950)
Min Temperature 47 °F 51 °F 34 °F (1992)
Degree Days  
Heating Degree Days 8 5  
Month to date heating degree days 220 193  
Since 1 July heating degree days 6430 6260  
Cooling Degree Days 0 2  
Month to date cooling degree days 42 28  
Year to date cooling degree days 47 38  
Growing Degree Days 7 (Base 50)    
Moisture  
Dew Point 47 °F    
Average Humidity 75    
Maximum Humidity 93    
Minimum Humidity 57    
Precipitation  
Precipitation 0.11 in 0.11 in 1.62 in (1927)
Month to date precipitation 1.89 2.85  
Year to date precipitation 13.85 12.25  
Snow  
Snow 0.00 in 0.00 in T in (1925)
Month to date snowfall 0.0 0.0  
Since 1 July snowfall 57.9 36.6  
Snow Depth -    
Sea Level Pressure  
Sea Level Pressure 29.87 in    
Wind  
Wind Speed 12 mph (NNE)    
Max Wind Speed 20 mph    
Max Gust Speed 31 mph    
Visibility 10 miles    
Events Rain , Thunderstorm    
T = Trace of Precipitation, MM = Missing Value Source: NWS Daily Summary

Daily Weather History Graph

Daily Weather History Graph

Search for Another Location

Airport or City:

Trip Planner

Search our weather history database for the weather conditions in past years. The results will help you decide how hot, cold, wet, or windy it might be!

Date:

Astronomy

May. 24, 2011 Rise Set
Actual Time 5:23 AM CDT 8:13 PM CDT
Civil Twilight 4:50 AM CDT 8:46 PM CDT
Nautical Twilight 4:09 AM CDT 9:28 PM CDT
Astronomical Twilight 3:21 AM CDT 10:16 PM CDT
Moon 1:05 AM CDT (5/24) 12:33 PM CDT (5/24)
Length of Visible Light 15h 56m
Length of Day
14h 50m
Waning Gibbous, 51% of the Moon is Illuminated
May 24
Waning Gibbous
May 24
Last Quarter
Jun 1
New
Jun 8
First Quarter
Jun 15
Full

Hourly Weather History & Observations

Time (CDT) Temp. Dew Point Humidity Pressure Visibility Wind Dir Wind Speed Gust Speed Precip Events Conditions
12:51 AM 63.0 °F 60.1 °F 90% 29.73 in 10.0 mi NNW 3.5 mph - N/A   Mostly Cloudy
1:51 AM 66.0 °F 57.9 °F 75% 29.74 in 10.0 mi North 4.6 mph - N/A   Mostly Cloudy
2:51 AM 64.9 °F 57.0 °F 75% 29.74 in 10.0 mi North 3.5 mph - N/A   Clear
3:51 AM 64.0 °F 55.9 °F 75% 29.74 in 10.0 mi NE 4.6 mph - N/A   Clear
4:51 AM 62.1 °F 55.9 °F 80% 29.78 in 10.0 mi NE 10.4 mph - N/A   Partly Cloudy
5:51 AM 57.0 °F 53.1 °F 87% 29.82 in 10.0 mi NE 13.8 mph - N/A   Mostly Cloudy
6:51 AM 55.9 °F 51.1 °F 84% 29.84 in 10.0 mi ENE 11.5 mph - N/A   Scattered Clouds
7:51 AM 59.0 °F 51.1 °F 75% 29.84 in 10.0 mi NE 15.0 mph - N/A   Scattered Clouds
8:51 AM 59.0 °F 50.0 °F 72% 29.87 in 10.0 mi NE 12.7 mph 19.6 mph N/A   Scattered Clouds
9:51 AM 59.0 °F 50.0 °F 72% 29.89 in 10.0 mi NE 16.1 mph - N/A   Mostly Cloudy
10:16 AM 59.0 °F 50.0 °F 72% 29.89 in 10.0 mi NE 15.0 mph 27.6 mph N/A   Scattered Clouds
10:51 AM 60.1 °F 48.9 °F 67% 29.89 in 10.0 mi NNE 16.1 mph 25.3 mph N/A   Scattered Clouds
11:51 AM 59.0 °F 46.0 °F 62% 29.90 in 10.0 mi NE 17.3 mph - N/A   Scattered Clouds
12:51 PM 57.9 °F 44.1 °F 60% 29.91 in 10.0 mi NE 19.6 mph 25.3 mph N/A   Scattered Clouds
1:51 PM 57.0 °F 43.0 °F 59% 29.90 in 10.0 mi NE 17.3 mph 24.2 mph N/A   Mostly Cloudy
2:51 PM 57.0 °F 44.1 °F 62% 29.91 in 10.0 mi NNE 15.0 mph 23.0 mph N/A   Mostly Cloudy
3:51 PM 55.9 °F 42.1 °F 60% 29.92 in 10.0 mi NNE 13.8 mph - N/A   Scattered Clouds
4:51 PM 55.9 °F 42.1 °F 60% 29.90 in 10.0 mi ENE 13.8 mph - N/A   Partly Cloudy
5:51 PM 54.0 °F 41.0 °F 62% 29.90 in 10.0 mi NE 15.0 mph - N/A   Scattered Clouds
6:51 PM 50.0 °F 39.9 °F 68% 29.91 in 10.0 mi NE 11.5 mph 23.0 mph N/A   Mostly Cloudy
7:51 PM 48.9 °F 39.0 °F 69% 29.92 in 10.0 mi NE 15.0 mph 25.3 mph N/A   Overcast
8:51 PM 48.0 °F 39.0 °F 71% 29.93 in 10.0 mi NE 10.4 mph - N/A   Overcast
9:51 PM 48.0 °F 39.9 °F 74% 29.91 in 10.0 mi NNE 12.7 mph 19.6 mph N/A   Overcast
10:51 PM 48.0 °F 41.0 °F 77% 29.93 in 10.0 mi North 9.2 mph - N/A   Overcast
11:05 PM 48.2 °F 41.0 °F 76% 29.92 in 10.0 mi North 6.9 mph - 0.00 in Thunderstorm Thunderstorm
11:40 PM 48.2 °F 42.8 °F 82% 29.91 in 10.0 mi North 9.2 mph - 0.11 in Rain Light Rain
11:51 PM 48.0 °F 44.1 °F 86% 29.89 in 10.0 mi NNE 11.5 mph - 0.11 in   Overcast